Location: Sungai Bunut
(2.6333°N, 113.7333°E)
Time: 08:59:00
(UTC+00:00)

Transit 2A - Pass Details

Date: 07 December 2023
Orbit: 599 x 953 km, 66.7° (Epoch: 01 March)

Event Time Altitude Azimuth Distance (km) Brightness Sun altitude
Rises 06:51:52 0° 227° (SW) 3,487 10.2 44.5°
Reaches altitude 10° 06:55:05 10° 242° (WSW) 2,486 9.7 43.8°
Maximum altitude 06:59:11 20° 288° (WNW) 1,784 8.6 43.0°
Drops below altitude 10° 07:03:03 10° 336° (NNW) 2,307 8.5 42.2°
Sets 07:05:56 0° 352° (N) 3,160 9.0 41.6°
